User: anonymous   Login
Location: *
(51.1248°S, 108.4023°W)
Time: 08:49:27
(UTC+00:00)
Language:

Cosmos 2219 - Orbit

View from above orbital plane
View from above orbital plane
View from above satellite
View from above satellite

Ground track
Ground track

The orbit data is extracted from the following two-line orbital elements,

1 22219U 92076A   21267.89704280 -.00000253  00000-0 -10871-3 0  9998
2 22219  71.0611 177.4819 0017483 174.0695 186.0638 14.13668852488440
Epoch (UTC): 24 September 2021 21:31:44
Eccentricity: 0.0017483
inclination: 71.0611°
perigee height: 834 km
apogee height: 859 km
right ascension of ascending node: 177.4819°
argument of perigee: 174.0695°
revolutions per day: 14.13668852
mean anomaly at epoch: 186.0638°
orbit number at epoch: 48844

The dashed part of the orbit path shows where the satellite is in the earth's shadow,  

DLR